Theta_e
304 304 304 304 304 304 304 304 304 304 304 304 304 304 304 303 304 304 304 304 304 305 306 306 307 307 308 308 308 308 308 308 308 308 308 307 308 309 310 311 311 310 311 312 310 311 314 317 321 324 326 328 328 328 330 331 331 330 332 334 338 338 333 332 331 332 331 331 334 333 332 331 333 332 329 328 328 329 329 331 331 333 334 333 337 340 341 340
304 304 304 304 303 303 303 304 303 304 304 303 303 303 303 303 304 304 304 303 303 304 305 306 306 307 308 308 308 308 308 308 308 307 308 308 309 310 311 311 311 310 311 312 310 310 313 316 320 322 324 329 329 328 330 330 331 332 332 333 334 334 332 333 331 330 331 331 333 333 332 332 333 333 330 330 330 329 331 332 332 335 336 336 339 340 340 340
303 303 303 303 303 303 303 303 303 303 303 303 303 303 303 304 304 304 304 303 303 303 304 305 306 306 307 307 308 307 308 308 308 307 309 311 311 311 311 311 312 313 313 313 311 311 313 316 319 321 323 328 330 329 330 331 332 333 332 332 332 330 330 332 330 328 330 331 332 333 332 332 333 332 331 332 332 329 331 332 332 333 335 338 338 339 340 340
303 303 303 303 303 303 303 303 303 303 303 303 303 303 303 303 303 303 303 303 303 303 304 305 306 306 306 307 307 307 308 308 308 310 312 312 311 309 308 309 310 312 314 314 312 311 312 315 319 320 323 327 329 329 331 331 332 334 335 333 330 328 328 329 327 327 329 330 331 333 333 333 332 332 331 332 334 331 329 329 329 329 330 334 337 339 340 340
303 303 303 303 303 302 302 302 302 302 303 303 303 303 303 303 303 303 303 303 303 303 304 304 305 306 306 306 306 307 307 307 308 311 311 310 309 307 307 307 307 310 314 314 312 311 311 314 317 319 321 326 329 330 331 330 331 334 335 333 331 329 328 328 327 329 330 329 334 334 332 332 331 331 330 332 334 332 329 329 329 329 328 330 335 338 339 340
303 303 303 302 302 302 302 302 302 302 302 302 302 302 302 302 302 303 303 303 303 303 304 303 304 305 305 305 306 307 307 306 308 310 309 308 308 307 306 307 306 307 312 313 312 311 312 314 316 319 321 324 328 330 330 329 330 334 334 332 332 331 329 330 329 332 330 330 334 333 330 329 330 330 330 330 332 331 329 329 329 329 329 329 332 336 338 339
303 303 302 302 301 302 302 302 302 302 302 302 302 302 302 302 302 302 302 302 303 303 303 303 303 304 304 305 306 307 307 306 307 308 309 307 307 306 305 306 306 306 310 312 311 311 312 314 316 318 321 324 327 328 329 330 331 332 333 332 331 330 330 330 330 331 331 332 333 328 326 328 329 329 328 330 330 329 328 328 328 329 329 330 332 334 337 338
302 302 302 301 301 302 302 302 302 302 302 302 302 302 302 302 302 302 302 302 303 303 303 303 303 303 304 305 306 306 306 306 306 308 309 307 305 305 304 304 305 306 309 311 311 311 312 314 316 318 321 324 325 327 328 331 332 331 332 331 331 330 330 330 330 329 329 330 330 328 328 328 328 326 326 328 328 328 328 327 327 328 329 330 331 333 336 337
302 302 301 301 301 302 302 302 302 302 302 302 302 302 302 302 302 302 302 302 303 303 303 303 303 303 303 305 306 305 305 306 306 307 308 307 305 306 306 306 306 306 307 308 310 311 312 313 315 317 320 322 323 325 327 331 332 331 331 331 331 331 330 330 329 328 326 326 327 328 329 328 326 325 325 327 327 327 327 327 327 327 328 330 330 330 331 333
301 301 301 301 301 302 302 302 302 302 302 302 302 303 303 302 302 302 302 302 303 303 303 302 302 303 303 305 305 305 306 306 306 306 308 307 305 306 307 307 307 307 307 307 309 310 312 313 314 316 318 320 321 324 326 329 330 329 329 330 331 332 331 330 329 327 326 326 325 326 328 328 326 324 326 326 326 327 326 326 327 327 329 329 329 329 328 329
301 301 301 301 302 302 302 302 303 302 302 302 302 303 303 302 302 302 302 302 303 302 303 302 302 302 303 305 305 305 305 306 305 305 307 307 306 306 306 306 306 307 308 308 308 309 311 312 314 317 318 319 322 324 326 327 327 327 328 329 331 332 333 332 330 329 325 326 325 326 327 326 326 325 325 326 326 326 325 326 327 328 329 329 329 328 326 325
301 301 301 301 302 302 302 302 302 302 302 302 302 302 302 302 302 302 302 302 302 302 302 302 302 303 303 304 304 304 304 305 305 305 305 305 305 305 306 306 306 306 308 309 309 309 311 312 314 318 319 319 321 325 326 326 327 327 328 330 331 332 333 332 331 330 326 325 325 326 328 327 326 325 325 326 327 326 325 326 327 328 328 329 328 326 324 323
300 301 301 302 302 303 303 303 302 302 303 303 302 303 302 302 302 302 302 302 302 302 302 302 302 303 304 304 304 304 305 305 305 305 305 305 305 305 305 306 306 305 306 308 310 310 311 313 315 317 318 319 322 324 324 326 328 329 329 331 331 333 334 332 331 330 326 326 326 327 329 328 326 325 325 327 327 326 325 325 325 325 327 329 327 325 324 322
300 301 302 302 303 302 302 302 302 302 303 303 302 303 302 302 302 302 302 302 302 301 301 302 303 304 304 304 304 304 305 305 305 305 305 305 305 305 305 305 307 306 305 308 310 310 311 313 315 316 317 318 321 322 323 325 328 330 330 331 332 334 334 331 331 332 329 329 327 327 329 327 325 325 326 328 327 325 325 324 324 324 325 328 327 324 324 324
301 302 302 302 302 301 301 301 301 302 303 303 302 303 303 302 302 302 302 302 301 301 302 303 304 304 305 304 304 305 305 305 306 305 305 305 304 305 305 305 307 307 306 307 309 311 312 313 314 316 316 318 320 322 324 326 328 331 331 332 333 333 333 331 330 332 332 331 327 328 330 328 326 327 327 328 328 326 325 324 324 324 324 327 327 325 324 324
302 302 303 302 301 301 301 301 301 302 303 303 302 302 302 301 301 301 301 301 301 302 303 304 304 305 304 305 305 306 305 305 305 305 305 305 305 305 306 307 308 308 307 307 309 311 313 313 314 315 316 319 320 321 325 327 328 330 331 332 333 333 334 333 330 328 329 330 329 329 330 329 327 327 327 328 329 328 326 325 325 325 325 327 328 327 324 321
302 302 302 301 300 301 302 301 302 303 303 302 301 301 301 301 302 301 302 302 302 303 303 304 305 304 305 304 304 305 304 304 305 305 305 304 305 306 307 308 308 309 308 307 310 311 313 313 314 315 317 319 321 321 324 327 327 328 330 332 331 331 334 334 331 327 327 330 331 330 328 328 328 327 327 327 327 328 326 327 327 326 326 325 325 325 321 316
302 302 302 301 300 301 301 302 303 302 301 301 301 301 302 302 302 302 302 303 303 304 304 304 304 303 303 304 304 304 303 304 304 304 304 304 304 305 306 308 308 309 308 309 310 311 312 313 313 315 317 319 320 321 324 325 326 327 329 330 330 330 332 333 332 329 328 331 332 332 330 328 328 327 326 326 327 327 327 327 327 327 326 325 324 322 316 311
301 302 302 301 300 300 301 301 301 300 300 301 302 302 303 303 303 303 304 304 304 304 304 304 304 303 303 304 304 304 303 303 304 304 305 305 305 306 307 308 309 309 308 310 310 311 312 313 314 315 316 318 319 320 323 324 324 326 327 328 330 330 330 331 332 330 329 332 332 332 331 329 328 327 326 327 328 326 326 325 325 326 326 325 324 320 312 307
301 301 302 301 300 300 300 300 300 299 301 302 302 302 303 303 303 304 303 303 304 304 303 304 304 303 303 304 304 304 303 304 304 304 305 306 306 306 308 308 308 308 308 309 310 311 312 313 313 315 315 317 318 318 320 323 323 326 327 327 328 329 329 329 332 333 331 332 333 332 332 330 326 327 326 326 326 326 327 326 324 325 325 324 323 317 308 305
301 301 302 301 300 300 300 299 299 300 301 302 302 302 302 302 303 303 302 302 303 303 303 304 303 304 304 304 304 304 304 304 304 305 306 305 305 306 307 308 308 308 308 308 310 311 312 313 313 313 314 314 316 318 319 322 324 326 328 328 328 330 331 330 332 333 332 333 334 332 332 332 328 329 329 327 326 326 327 326 325 324 321 319 316 311 307 305
301 301 301 302 301 300 298 299 300 301 302 302 302 302 301 301 301 301 301 302 303 303 304 304 304 304 304 304 304 304 304 304 304 306 306 305 305 305 307 308 308 307 307 308 310 311 312 312 312 312 313 313 315 318 320 322 323 325 327 329 330 331 332 332 331 332 332 333 334 333 333 334 329 325 324 323 321 320 320 319 319 317 313 310 307 306 305 304
300 300 301 302 302 299 298 299 300 301 302 302 302 302 301 301 301 301 301 302 302 303 304 303 303 303 303 304 304 304 304 304 304 305 305 306 306 306 307 308 308 307 308 309 310 311 313 312 311 312 313 312 314 317 320 322 323 324 326 329 331 331 332 333 331 331 331 332 333 333 333 335 329 322 320 320 317 316 314 312 310 309 307 305 304 304 303 302
300 300 301 301 302 301 299 299 300 301 302 302 303 302 301 301 302 302 302 302 303 304 304 303 302 303 304 304 304 304 303 304 304 304 305 306 305 306 307 307 308 308 308 309 310 311 312 312 311 312 313 312 314 316 320 322 323 325 326 327 328 328 330 331 330 330 329 329 332 332 334 333 325 319 318 318 316 314 314 312 310 307 305 304 303 302 302 301
300 300 301 301 302 302 301 301 301 302 302 303 303 302 301 302 302 302 302 303 303 303 303 303 303 303 303 303 304 304 304 304 304 304 305 306 305 306 307 307 308 309 309 308 310 312 312 312 312 313 313 313 314 316 319 321 322 324 326 325 324 324 327 328 328 330 331 331 329 330 334 328 318 316 315 314 312 311 311 310 309 306 303 302 302 301 301 299
299 299 300 301 301 301 302 303 302 302 303 303 303 302 302 302 302 302 302 303 303 301 301 303 303 304 303 303 304 304 305 305 304 303 305 306 305 305 307 307 308 309 309 309 311 313 313 313 313 313 313 314 314 316 319 320 321 324 325 324 324 324 326 326 328 330 330 329 326 327 332 325 317 315 312 310 310 308 307 306 305 303 301 300 300 299 299 298
298 298 299 300 301 302 303 303 302 302 303 302 302 302 302 302 302 302 303 304 303 301 301 303 304 304 303 304 304 305 306 305 304 304 305 307 306 306 307 308 309 309 309 310 312 313 313 313 314 314 313 314 314 316 319 319 321 324 325 323 323 325 325 324 327 327 325 325 325 327 330 324 318 315 311 310 310 307 305 303 301 300 299 298 297 297 296 296
297 298 299 300 300 302 303 303 302 303 303 302 301 301 302 302 302 302 304 305 302 301 302 302 303 303 303 304 304 304 305 304 304 305 305 306 305 306 309 308 308 309 309 311 313 311 311 313 315 314 313 313 315 317 319 320 321 323 324 324 324 324 323 322 323 323 322 324 326 326 326 324 320 316 312 310 308 306 304 302 300 299 298 297 296 295 295 294
297 298 299 299 300 303 303 302 303 303 303 302 301 301 301 301 301 303 305 304 302 302 302 303 304 303 303 304 304 304 304 304 304 304 304 305 304 306 308 306 306 308 308 310 313 312 310 312 315 317 315 314 315 318 320 320 321 322 323 325 325 323 323 322 320 321 322 325 327 323 322 323 321 316 314 312 308 305 303 301 300 298 297 296 295 294 294 293
297 299 299 299 302 304 303 302 303 303 303 302 301 301 301 301 303 304 305 304 303 302 303 303 304 303 303 304 305 305 305 304 304 303 304 305 305 305 305 303 304 307 310 310 312 312 310 310 313 316 315 315 316 318 321 321 321 321 322 324 325 324 324 323 321 322 323 324 325 322 320 322 320 314 313 313 309 305 302 300 299 297 296 295 294 293 293 292
298 299 299 299 301 302 302 303 303 303 302 301 300 300 302 304 305 305 305 303 303 303 303 303 303 302 302 304 305 305 305 305 303 304 306 306 306 306 306 305 305 308 312 312 312 311 311 311 312 312 312 314 318 318 321 323 322 321 322 323 323 324 324 323 322 323 322 322 323 319 318 319 317 312 310 310 307 304 301 300 298 297 296 295 294 293 293 292
299 298 299 300 300 301 302 303 303 301 301 300 300 301 304 306 305 304 304 303 303 304 303 303 303 302 303 304 305 305 305 306 304 305 307 308 308 308 307 308 308 311 314 313 313 312 311 312 312 312 312 313 318 320 320 322 322 322 323 322 323 324 323 323 324 323 322 323 322 318 316 314 311 309 305 304 303 301 300 299 297 296 295 294 293 293 293 293
299 299 300 300 300 302 303 303 302 300 299 299 301 304 305 306 305 303 303 303 303 303 302 303 303 303 304 305 305 305 306 307 305 306 307 308 308 308 307 307 307 311 314 313 314 314 314 313 312 313 314 313 316 321 322 322 320 319 321 322 323 323 322 323 323 323 322 322 321 318 315 312 309 307 304 301 300 299 298 297 296 295 294 294 293 293 293 293
299 299 300 300 302 303 302 301 299 298 299 301 303 305 305 304 303 302 302 302 302 302 302 303 302 303 306 306 305 305 307 308 307 307 307 307 307 307 307 308 307 309 311 311 313 314 315 316 313 312 313 313 315 318 320 321 319 319 320 321 321 320 321 322 322 323 323 322 322 318 314 312 309 307 304 301 299 298 297 296 296 295 294 294 294 293 293 292
299 300 301 301 303 303 300 298 297 298 301 304 303 303 303 303 302 301 302 301 301 302 302 302 303 306 308 306 305 305 307 309 308 307 306 305 305 305 306 307 307 308 309 311 312 312 314 315 313 312 312 313 315 316 317 320 321 321 321 323 323 321 321 321 320 322 322 323 321 315 310 308 306 304 302 300 299 298 297 296 295 295 294 294 294 293 293 292
302 304 304 303 302 300 298 298 297 298 303 305 303 301 301 301 301 301 302 301 301 302 302 303 305 306 307 306 305 305 306 308 308 307 306 305 304 304 304 305 306 306 308 311 312 312 314 314 313 313 313 314 315 315 316 319 321 322 322 322 320 318 319 320 320 320 320 322 318 310 307 305 303 303 302 300 299 297 296 296 295 295 295 294 294 293 293 292
303 304 304 304 301 298 298 299 299 300 304 304 302 300 299 300 300 301 301 301 302 302 303 305 306 305 306 305 304 304 305 306 307 307 305 305 305 303 301 303 304 305 306 308 312 313 313 313 313 313 314 314 314 315 315 316 319 322 321 320 317 317 319 319 320 318 317 320 317 310 307 306 306 306 302 299 299 297 296 296 295 295 295 294 293 293 293 292
302 304 304 302 299 298 299 300 301 304 305 303 302 300 299 299 300 300 301 302 302 302 303 305 305 305 305 305 304 304 305 306 307 306 305 304 304 303 300 301 303 304 304 306 311 313 312 312 312 313 315 315 313 315 316 316 318 321 320 318 317 318 320 318 320 321 318 318 317 311 308 307 308 307 302 300 299 297 296 296 295 295 294 294 293 293 292 292
303 305 305 301 298 298 300 301 303 305 304 303 302 300 298 297 299 300 301 302 302 302 303 303 304 305 305 305 305 304 304 304 304 305 304 303 304 303 300 300 303 303 303 306 309 310 312 313 312 312 314 315 313 313 315 315 316 319 320 317 315 316 319 318 319 321 318 317 317 314 312 310 308 304 301 300 298 297 297 296 295 295 294 294 293 293 292 292
304 305 305 301 298 299 300 302 302 302 302 301 300 299 297 298 299 300 301 302 302 302 302 302 302 303 304 304 305 304 304 304 303 303 302 300 302 303 300 299 301 302 302 306 307 307 312 315 313 311 311 313 312 310 311 313 315 318 319 318 316 316 318 317 316 318 316 315 316 316 315 310 304 301 302 300 298 297 297 296 295 294 293 293 293 293 293 292
303 304 304 300 298 300 301 302 302 302 300 299 299 298 298 299 299 300 300 301 302 302 301 301 301 301 302 303 304 303 303 304 302 302 302 300 301 302 300 299 300 301 303 308 308 307 311 314 312 311 311 311 310 308 308 309 312 314 315 316 316 316 316 315 314 316 314 314 315 316 317 309 301 299 299 298 297 297 296 296 295 294 293 293 293 293 293 292
303 303 302 299 298 300 302 302 301 301 300 298 298 298 298 299 299 299 299 299 301 302 301 301 301 300 299 300 302 302 303 303 303 302 302 300 300 300 300 300 301 302 304 307 307 306 309 311 311 310 310 310 309 307 306 307 310 312 312 312 314 315 316 315 315 315 314 315 315 314 317 308 298 297 297 295 296 296 295 295 294 293 293 293 293 293 292 292
302 302 301 299 298 300 303 302 300 299 298 297 297 298 299 298 298 299 298 298 299 300 300 300 300 300 299 299 300 301 302 302 302 303 302 301 300 299 299 299 301 302 303 304 305 306 308 310 310 310 310 309 307 307 308 308 310 311 310 310 313 315 316 315 315 315 313 316 315 312 314 307 298 296 296 294 295 295 294 295 294 293 293 293 293 293 292 292
301 301 300 299 299 301 304 303 301 299 298 298 298 299 299 298 298 298 297 297 297 298 299 299 299 300 300 299 299 300 301 302 301 301 302 301 301 299 299 300 299 300 301 302 303 305 308 308 310 312 312 311 310 311 312 311 310 309 308 309 311 313 314 314 313 314 314 315 314 312 314 305 297 297 296 294 294 294 293 294 294 294 293 293 292 292 292 291
302 302 301 300 299 300 302 301 300 299 298 299 299 299 299 298 298 298 297 296 297 297 297 298 298 299 299 300 300 299 300 301 301 301 300 301 300 299 300 301 298 298 301 301 301 304 305 304 306 312 314 314 314 313 311 309 308 307 307 308 309 310 313 313 312 313 315 314 313 314 312 302 296 296 295 294 294 293 292 293 293 294 293 293 292 292 291 290
302 301 301 302 300 300 300 300 300 300 299 300 299 298 298 297 297 298 298 297 296 296 296 296 297 299 299 300 301 299 299 300 300 300 298 299 300 299 300 301 298 297 301 302 301 303 304 302 302 306 309 309 309 306 305 306 308 309 308 307 307 307 309 312 312 313 313 312 313 312 306 299 295 295 295 294 294 293 292 292 292 293 293 293 292 292 290 289
301 299 298 299 300 300 300 299 299 300 299 299 298 297 297 296 296 297 297 297 296 295 295 295 296 298 298 300 301 300 299 299 298 298 297 298 298 299 300 300 296 297 300 301 301 304 305 303 301 302 303 303 303 302 302 304 306 307 307 306 306 306 307 310 311 310 309 311 313 307 302 301 298 295 294 294 293 292 291 290 291 292 293 293 292 291 289 288
299 298 296 297 298 299 299 299 299 298 298 297 296 296 296 295 295 296 295 296 296 294 295 294 295 296 297 299 301 299 298 300 298 296 296 297 297 297 299 299 296 296 297 298 300 302 304 303 301 300 301 301 301 301 301 302 302 303 304 304 305 304 305 307 307 306 307 309 310 305 304 304 300 295 294 293 292 291 290 290 291 291 292 292 291 290 288 287
299 298 297 297 297 296 296 297 298 298 297 297 295 295 296 295 295 294 293 295 295 294 294 294 294 295 295 296 299 297 297 299 299 296 294 295 296 295 296 298 297 294 294 297 298 299 302 303 300 300 300 299 299 300 300 300 300 300 301 302 302 303 303 304 304 304 304 305 306 305 304 302 298 296 294 292 292 291 290 290 291 291 293 292 290 288 287 286
299 299 298 298 297 296 296 297 298 297 296 295 295 295 295 294 294 294 292 293 294 293 293 294 294 295 294 293 295 294 294 295 296 294 293 294 295 294 294 296 294 292 294 296 296 297 302 303 299 298 300 299 298 299 300 299 298 298 299 299 300 301 301 301 302 302 302 303 303 304 303 299 295 294 292 291 291 291 290 290 290 291 292 291 289 287 286 285
296 295 296 298 297 295 296 296 297 297 295 293 295 295 294 294 294 293 293 293 292 292 292 292 294 294 293 292 291 291 291 291 292 292 291 292 292 292 293 293 292 292 294 296 296 297 302 302 298 298 302 301 298 297 297 297 296 297 297 297 299 299 299 300 301 302 302 302 302 304 303 298 293 292 291 290 290 290 289 289 290 291 292 290 288 286 285 285
295 294 294 297 297 294 295 295 295 296 294 291 291 292 292 292 292 293 295 294 292 291 291 292 293 293 292 291 290 289 289 290 290 290 290 291 291 291 292 292 292 292 293 295 297 298 300 301 299 298 300 301 298 297 296 296 297 299 299 297 297 298 299 299 299 300 301 301 301 302 300 295 292 291 290 290 290 290 289 289 290 291 291 289 287 285 284 285
Wind_Speed
16 16 16 17 17 17 18 18 18 18 18 18 18 17 16 17 17 17 18 18 18 18 19 18 17 18 19 18 17 16 17 18 18 17 16 16 14 13 13 13 15 16 14 13 13 13 11 9 8 8 8 6 5 3 4 3 3 3 2 4 6 8 7 6 7 5 4 3 5 5 5 4 5 5 2 2 3 2 6 6 7 9 9 9 11 15 16 14
16 17 17 17 17 18 18 18 19 19 18 18 17 17 17 17 17 17 17 18 18 18 19 18 17 17 18 19 17 17 16 17 18 19 20 16 10 6 7 9 13 17 16 13 12 11 9 7 6 6 4 4 5 5 7 4 4 5 4 5 7 9 6 4 7 5 5 5 6 5 5 5 4 4 1 2 4 5 6 7 8 9 9 9 12 15 14 13
17 17 18 18 18 18 18 19 19 19 19 18 18 18 17 16 16 17 17 17 17 18 19 19 18 17 18 18 18 17 16 17 16 14 10 2 4 4 7 7 7 12 15 13 12 11 10 9 7 6 4 5 4 6 8 5 4 5 5 6 8 8 4 6 11 9 6 5 4 6 3 3 3 3 1 0 3 5 5 5 6 8 8 8 9 11 12 12
18 17 18 18 18 19 20 20 20 20 19 18 18 18 17 17 16 17 17 18 17 17 18 18 18 17 17 18 18 17 15 14 9 1 4 9 6 6 9 8 8 9 10 14 12 12 11 10 6 3 4 5 5 7 8 7 5 4 6 7 5 6 6 9 15 12 6 6 3 5 4 3 4 1 0 1 2 3 6 7 7 8 7 7 7 8 10 10
18 18 18 19 19 20 21 21 21 21 20 19 18 18 18 18 17 17 17 18 18 17 17 17 17 17 18 18 17 16 12 8 0 7 7 5 3 7 8 7 9 10 5 12 11 12 12 10 6 3 4 4 6 7 7 10 5 3 7 8 5 6 8 8 12 9 2 5 1 2 5 4 4 1 1 1 1 3 6 7 8 7 6 6 7 7 8 8
19 19 19 20 21 21 22 22 21 21 20 19 19 18 19 19 18 17 17 17 18 17 16 17 18 17 18 19 16 13 8 4 3 5 2 1 2 5 9 8 9 10 3 10 11 11 10 9 6 4 3 3 8 8 7 10 8 6 7 7 9 9 7 5 7 5 1 3 3 4 5 3 3 3 2 0 2 6 7 6 7 6 5 6 8 8 6 6
20 21 21 22 22 22 22 22 21 21 19 18 18 19 19 19 18 17 17 17 17 16 16 17 17 17 18 19 15 9 7 8 8 7 5 5 6 10 13 10 9 9 3 9 11 10 8 9 8 6 5 4 7 9 8 9 9 10 6 7 10 11 12 7 5 7 4 4 4 3 2 2 3 2 2 1 2 5 8 6 5 5 4 5 7 6 6 7
21 21 22 22 22 21 21 21 20 19 19 18 18 19 20 20 18 17 16 16 16 16 15 15 15 14 15 16 11 7 8 12 13 10 6 6 7 9 12 10 7 6 4 6 10 10 8 10 12 7 5 5 5 7 9 8 8 12 9 7 7 8 12 8 6 7 7 4 3 3 3 2 2 4 3 1 2 2 8 7 5 4 3 5 7 7 7 7
22 22 22 22 21 21 21 21 21 20 20 19 19 18 19 18 16 16 15 15 15 15 14 14 13 12 12 11 8 8 8 8 8 7 4 5 7 8 8 6 5 6 6 6 8 12 10 9 12 9 6 6 7 7 7 8 7 10 11 7 6 8 7 2 8 7 6 4 5 3 1 3 5 5 4 2 2 2 3 4 4 3 2 5 6 8 9 8
22 22 22 21 21 21 21 21 21 20 20 20 20 17 17 16 15 15 15 15 15 14 13 13 11 10 11 10 8 8 6 4 5 6 4 5 6 7 7 6 6 6 7 7 8 11 11 9 10 7 6 7 6 6 6 7 3 3 9 9 9 9 3 2 8 9 5 4 7 6 5 3 3 2 2 2 2 2 2 3 4 2 3 6 6 8 10 9
22 22 21 21 21 21 21 21 20 20 20 20 19 17 16 15 14 14 14 14 14 14 13 12 11 11 11 9 8 7 3 3 5 7 6 7 6 6 8 9 9 8 8 8 9 11 12 14 12 3 3 5 4 6 6 6 3 1 5 9 11 10 3 1 8 9 6 4 7 7 5 5 3 4 6 3 2 3 0 3 5 3 5 6 6 9 9 10
22 21 20 21 22 22 23 23 21 21 20 19 18 17 16 15 14 15 15 14 14 14 12 11 11 11 11 9 10 13 11 12 14 14 13 14 11 10 12 14 12 11 9 8 9 9 10 13 12 7 4 5 3 4 4 4 3 2 2 5 10 10 7 5 7 10 6 5 6 6 3 6 8 7 8 6 2 4 1 0 4 3 6 6 6 8 9 11
21 20 21 22 23 24 24 23 22 21 21 19 17 17 17 16 15 15 15 15 14 13 12 11 11 11 10 7 10 16 18 18 16 16 15 15 15 13 14 15 14 13 12 12 11 9 9 9 8 9 8 5 3 1 2 1 4 3 2 3 5 6 8 10 8 10 8 6 7 7 3 6 9 10 10 8 5 5 3 2 0 1 4 5 6 8 9 11
20 21 23 23 23 24 24 23 21 21 20 19 16 16 17 16 16 16 16 16 14 13 12 11 11 11 9 8 12 16 17 16 15 15 15 13 14 14 14 15 14 14 14 14 13 10 9 8 6 6 8 6 4 4 4 2 4 4 3 2 4 5 7 10 10 8 8 5 8 8 5 4 4 8 11 10 7 6 4 4 4 3 3 5 7 9 10 12
21 22 23 23 23 24 24 23 20 19 19 17 16 16 18 17 16 16 16 16 14 12 11 11 12 9 6 8 12 12 11 12 13 13 12 12 13 13 13 13 13 14 13 14 14 10 7 6 4 4 5 6 5 5 3 3 2 4 4 3 4 6 5 9 11 8 6 4 7 8 3 2 1 3 6 7 8 6 4 4 4 4 4 5 7 9 11 14
21 22 23 23 23 23 22 20 17 16 16 16 15 17 18 16 15 14 14 13 12 11 9 9 10 9 5 5 5 5 4 6 8 8 7 8 10 9 10 10 11 11 11 14 12 6 4 3 3 4 4 6 7 6 4 4 3 3 4 3 4 6 5 8 10 9 9 6 7 8 3 2 3 6 7 6 8 7 4 2 1 4 4 6 8 9 12 13
21 21 23 23 23 22 21 17 14 14 15 14 15 16 14 13 12 11 10 9 9 9 9 7 5 7 5 5 3 5 5 4 6 7 7 8 9 9 9 7 8 8 9 12 8 1 1 2 3 4 4 5 6 6 4 5 6 4 4 3 3 6 5 6 8 10 12 9 8 9 4 3 6 6 6 6 7 6 6 3 5 9 10 11 12 11 12 13
21 21 22 24 23 21 19 16 13 13 13 12 13 14 13 12 10 7 5 5 6 6 8 6 3 3 4 5 6 6 7 9 9 10 13 13 12 12 9 6 5 5 6 7 4 3 2 3 4 4 4 5 6 7 6 6 8 8 7 4 4 5 5 5 6 7 10 8 8 8 6 5 8 6 6 6 6 6 6 6 9 13 13 12 13 12 13 14
21 20 21 23 21 19 18 16 13 12 12 12 15 14 12 10 7 5 3 4 4 3 3 3 4 3 4 4 6 6 9 13 13 13 12 7 7 9 9 6 3 3 4 3 4 6 4 3 4 5 6 8 8 9 8 6 8 11 9 5 5 5 5 5 3 3 9 7 6 8 7 6 6 6 6 6 7 7 6 8 11 12 11 11 12 12 14 16
21 20 20 21 20 19 17 14 10 11 12 14 17 12 5 4 3 1 1 4 5 5 5 3 5 7 8 7 6 9 11 12 12 8 3 1 2 6 5 4 1 1 4 4 5 6 5 4 6 7 9 11 12 12 11 9 6 6 8 6 6 6 5 6 3 2 7 6 5 7 4 5 4 6 5 4 6 6 7 11 12 11 10 11 12 13 15 16
21 19 18 18 20 19 13 10 9 12 13 13 14 8 3 4 3 2 4 5 5 6 7 5 6 8 9 10 10 10 8 7 7 1 3 1 4 5 4 4 3 3 5 7 4 2 5 6 9 11 12 13 14 13 11 10 4 3 5 7 7 6 4 5 5 5 7 6 5 6 4 4 1 6 5 6 9 8 9 14 13 13 12 11 13 15 15 14
21 19 17 16 18 16 8 6 8 11 12 10 10 7 4 5 5 3 3 4 5 6 6 7 7 7 9 10 8 5 4 5 4 3 4 3 4 4 5 5 5 4 4 6 4 2 5 8 12 13 12 11 12 12 10 10 5 4 3 5 5 5 2 2 4 5 5 4 5 7 6 3 6 13 12 11 12 11 11 13 13 14 14 13 15 15 14 14
20 19 17 14 15 15 8 7 9 9 9 7 7 7 4 4 6 4 2 4 5 5 5 5 6 6 7 5 1 3 5 5 3 2 2 2 3 3 5 6 6 4 3 5 5 4 5 9 14 12 10 12 11 12 11 8 5 4 3 3 3 5 4 2 4 6 4 1 2 7 6 3 8 13 13 10 12 14 14 16 16 15 16 16 16 15 15 16
20 18 16 14 14 14 12 12 11 7 5 4 4 5 4 6 6 2 3 3 4 3 2 4 5 5 4 3 2 3 4 4 3 1 1 3 2 1 4 6 6 5 4 6 7 6 7 7 11 11 11 13 11 12 12 7 5 5 4 3 3 5 4 2 5 8 5 3 2 7 5 2 7 12 11 8 11 15 12 14 16 15 15 16 17 17 16 16
19 17 16 14 13 14 14 12 8 7 7 3 3 5 5 8 5 2 3 2 2 1 0 2 3 3 3 5 4 3 4 4 0 1 3 4 1 1 2 3 3 5 6 7 7 6 8 8 8 11 12 13 11 11 12 8 5 5 5 6 6 7 6 6 7 8 6 1 1 4 4 3 7 12 10 7 11 14 12 14 15 14 15 15 15 15 15 15
18 17 15 14 13 15 12 7 7 12 9 1 4 8 6 7 5 2 2 2 1 1 2 1 1 2 5 5 3 2 5 2 1 4 5 4 1 2 2 2 2 3 5 6 4 2 5 8 9 12 13 14 11 9 12 10 6 4 5 9 9 8 9 8 6 5 4 2 1 1 2 4 5 9 9 6 11 14 12 15 15 13 14 14 14 13 13 14
17 16 16 14 13 13 9 6 9 12 6 2 7 11 6 6 5 1 2 2 1 1 4 3 1 2 4 5 4 3 3 1 3 5 3 3 1 3 2 2 2 2 3 2 1 1 2 6 10 13 13 12 9 8 12 11 5 3 6 10 10 9 10 9 7 4 1 2 2 4 2 5 4 6 7 6 11 13 12 14 14 14 15 15 15 14 14 14
17 16 15 15 14 10 7 9 10 8 5 6 10 9 6 6 3 1 2 1 2 2 1 2 3 2 4 7 6 2 1 2 3 3 3 2 2 2 2 1 2 3 2 2 2 1 3 4 11 14 12 10 8 7 12 12 4 4 8 9 8 9 10 9 8 5 1 1 2 4 3 4 4 5 4 3 10 13 12 13 13 14 15 15 15 15 15 14
16 15 14 15 14 7 6 9 9 8 8 8 8 8 7 5 1 1 2 1 2 1 1 0 3 3 6 7 3 0 1 1 1 3 3 4 4 1 1 1 2 3 2 1 2 1 1 5 6 8 8 7 7 8 12 10 4 6 8 6 7 8 9 8 6 5 3 2 2 1 3 2 4 4 2 2 7 10 10 11 12 13 13 13 13 13 13 12
16 14 13 15 12 7 8 9 7 7 13 12 8 6 5 2 1 1 2 1 1 1 1 1 3 5 9 7 2 1 1 1 0 3 2 2 2 1 1 2 1 2 2 2 1 1 4 6 1 3 2 3 5 8 9 9 10 10 7 6 7 5 4 5 3 3 4 1 2 4 2 2 4 3 3 3 6 8 8 9 10 11 12 12 11 11 11 11
14 13 12 12 10 9 10 7 6 10 15 13 6 2 3 2 2 2 3 1 0 2 3 3 5 7 10 7 4 2 1 2 1 1 1 2 2 2 2 1 0 1 2 3 2 1 2 3 2 1 2 4 4 5 5 8 14 11 5 5 6 3 3 2 1 1 3 1 3 7 6 6 4 3 4 5 8 10 9 10 11 11 11 10 10 10 10 10
13 11 10 9 9 10 8 8 12 15 13 8 2 3 3 1 1 3 3 1 1 4 4 4 7 9 9 6 5 4 2 1 2 1 1 1 1 3 2 2 2 1 2 2 2 2 5 5 5 5 3 4 1 5 5 5 8 7 5 6 4 3 1 1 1 1 2 2 4 8 7 7 5 3 5 8 10 11 11 11 11 11 11 10 9 9 9 8
11 10 8 8 10 11 9 12 17 17 9 3 2 3 2 2 3 4 5 4 3 5 4 4 8 9 7 4 4 4 2 1 2 1 1 1 2 3 3 6 7 3 2 0 2 3 2 2 9 9 3 5 3 5 5 4 5 5 5 5 3 4 3 2 3 2 2 2 4 6 6 6 4 3 5 8 11 11 12 11 10 10 10 9 9 8 8 8
10 9 8 8 10 10 12 15 17 13 4 2 3 1 2 5 4 4 5 4 4 6 5 5 9 8 3 2 3 3 2 4 4 3 3 2 4 6 5 8 12 6 1 1 3 3 2 2 7 8 4 5 4 4 1 4 6 4 2 2 2 3 2 3 3 3 3 3 3 2 4 3 5 4 5 8 10 10 11 11 10 9 8 8 7 7 8 8
9 7 7 7 8 11 15 18 16 9 1 2 1 4 5 5 3 4 4 5 5 7 9 8 7 5 4 4 4 5 3 3 4 4 7 6 5 6 7 7 11 8 2 2 2 1 4 4 4 4 5 4 6 5 4 4 5 1 2 2 2 1 1 2 1 4 7 4 2 2 4 3 5 7 6 7 9 9 10 10 9 9 7 6 6 7 7 7
6 6 5 5 10 16 18 17 16 10 2 2 3 6 4 3 2 3 4 6 6 7 11 9 4 5 7 5 6 8 4 2 5 4 5 5 5 8 8 5 7 9 5 3 2 0 3 3 4 4 1 6 9 6 6 5 1 1 1 3 1 2 2 3 1 4 7 4 3 4 3 4 5 5 6 8 9 9 9 9 9 9 7 6 6 6 6 6
6 6 4 6 16 19 15 14 15 10 3 1 5 5 2 2 2 5 6 7 6 5 7 5 3 6 7 4 6 11 8 3 5 5 4 4 4 8 10 7 6 8 8 5 2 1 2 4 3 5 5 7 7 7 9 7 3 3 3 1 2 2 1 3 2 2 3 3 3 3 6 7 4 3 6 9 9 9 8 8 8 7 7 6 6 6 6 6
7 6 2 8 18 16 12 15 14 7 1 3 7 5 1 2 3 6 7 8 7 4 3 4 4 4 5 5 5 9 9 5 5 4 3 4 3 5 9 7 7 10 11 8 2 2 3 4 4 7 6 4 4 6 7 7 6 3 3 2 0 2 2 1 2 2 2 3 3 3 6 5 3 4 8 9 9 10 9 8 7 7 7 6 6 6 6 6
6 4 1 10 17 11 12 16 11 4 1 4 5 3 2 3 4 7 8 7 6 4 4 5 5 4 4 4 4 6 8 6 6 4 3 4 2 3 8 6 8 13 14 9 2 1 2 3 1 6 6 2 4 6 4 4 7 4 2 2 2 2 1 0 1 2 2 3 3 4 5 3 1 3 10 11 9 10 9 7 7 7 6 6 5 5 5 5
5 2 1 12 16 8 10 11 7 5 4 4 3 2 2 3 5 7 8 7 5 3 3 5 6 5 4 5 5 5 6 6 6 5 3 5 2 2 7 8 8 13 14 8 3 1 3 2 3 4 7 4 3 4 2 2 4 4 4 4 3 2 1 1 2 2 3 2 3 4 3 1 1 1 8 11 8 8 8 7 6 6 6 6 5 5 4 4
4 0 2 14 16 9 7 6 5 5 3 3 3 1 3 3 5 8 9 8 5 3 3 3 4 4 3 5 6 5 5 5 5 4 3 5 4 1 7 10 9 10 9 6 5 4 3 4 3 3 6 5 3 1 1 2 3 3 4 3 2 2 2 3 2 2 2 2 2 4 2 1 1 2 5 8 6 6 7 6 5 5 5 5 4 4 4 4
3 1 4 17 17 9 6 4 4 5 3 2 2 1 4 5 5 7 8 8 5 3 3 3 3 4 3 3 4 4 5 4 4 4 3 4 5 4 8 12 11 7 4 3 4 4 2 4 6 5 4 2 1 0 1 1 3 2 4 4 3 2 3 3 2 1 2 2 2 3 2 1 1 4 6 6 5 5 5 6 6 5 5 5 4 4 5 5
3 1 5 17 15 6 3 6 3 4 3 1 2 1 3 4 5 6 7 8 6 5 5 4 4 5 4 2 2 3 4 3 4 5 4 3 5 6 9 13 12 8 5 4 4 5 3 2 4 4 2 1 1 2 2 1 1 3 4 5 4 2 2 3 2 1 1 1 1 1 2 1 0 3 5 5 5 5 4 5 6 5 5 5 5 4 4 5
3 1 4 17 15 4 2 4 3 4 3 0 1 2 2 2 5 7 7 8 6 5 4 4 5 5 3 1 2 4 4 2 4 6 5 3 3 5 9 12 12 9 5 3 4 4 3 2 2 3 3 3 3 3 4 4 4 4 2 4 5 4 4 3 1 2 1 1 2 3 2 1 2 3 5 6 6 5 4 4 5 5 5 5 4 4 4 4
2 1 1 13 18 11 4 3 3 4 2 2 2 5 3 2 4 6 5 5 6 5 4 4 5 5 4 3 3 7 8 4 3 4 5 5 3 3 8 10 10 9 6 4 5 3 3 3 2 3 4 2 2 2 1 2 2 2 2 4 5 6 5 3 2 3 1 2 3 2 1 2 4 5 6 6 6 6 5 5 5 4 5 5 4 4 3 3
2 2 2 6 10 8 4 3 3 2 1 2 2 4 6 3 2 4 4 3 5 6 4 4 6 5 4 6 5 6 9 6 4 3 4 5 3 2 5 7 9 12 11 9 7 3 3 3 5 6 5 4 4 2 1 2 1 2 2 4 5 5 5 3 3 2 1 1 3 1 4 7 7 7 8 8 7 6 6 5 5 4 5 5 4 4 3 3
1 2 2 2 2 3 3 4 5 3 1 1 1 2 5 5 4 4 4 3 4 6 4 4 8 6 5 6 4 5 7 5 4 4 4 5 3 3 2 3 8 16 15 10 8 4 4 4 6 7 8 6 5 4 4 4 4 4 3 4 5 5 5 4 4 1 0 1 1 1 6 9 9 10 10 8 7 6 5 5 5 4 5 5 5 4 4 3
2 2 1 1 1 2 3 4 5 5 5 4 2 2 4 6 6 4 4 4 4 6 4 4 9 11 8 6 3 3 6 4 5 6 6 6 5 5 4 1 6 14 13 7 6 5 5 3 4 4 7 7 6 6 6 6 5 4 4 4 5 5 5 4 3 2 2 3 3 3 4 5 8 11 10 8 6 5 5 5 4 5 5 5 5 4 4 3
3 3 1 1 1 1 3 4 4 4 5 4 3 3 4 6 6 4 3 4 3 6 6 4 7 10 11 9 4 4 6 4 3 5 5 6 6 6 6 3 4 11 12 6 5 5 3 3 3 3 5 6 6 6 5 6 5 4 3 3 4 4 4 3 2 3 4 3 4 5 5 3 4 8 8 6 6 5 4 4 5 5 5 5 5 4 3 3
2 2 1 2 3 1 1 4 4 2 4 4 2 1 2 4 5 3 3 4 4 5 6 5 6 7 9 11 8 6 7 6 4 5 6 5 5 5 4 2 4 9 10 6 5 6 4 2 3 2 3 4 6 5 5 5 4 2 3 3 0 1 1 1 0 1 2 1 3 7 7 3 2 5 7 6 5 4 4 4 5 5 5 6 5 3 3 3
2 2 2 3 2 2 2 2 3 2 3 4 3 2 2 3 3 2 2 4 5 4 4 5 7 5 6 9 9 6 6 6 4 5 5 4 4 3 2 2 4 7 8 5 5 5 5 2 2 2 3 2 4 5 5 5 3 3 5 4 2 2 1 1 0 1 1 2 3 5 4 3 3 6 6 5 5 5 5 5 4 5 6 6 5 3 3 2
3 1 1 2 2 2 3 3 3 2 2 3 3 3 3 2 2 1 1 3 5 4 3 4 5 4 4 7 7 5 5 5 4 4 3 2 3 3 3 3 3 4 5 4 3 3 2 1 1 3 3 2 4 5 5 5 4 4 3 2 3 3 3 2 1 1 1 1 3 4 3 3 6 7 7 6 6 5 5 4 4 5 6 6 5 4 3 1
Wind_Direction
339 337 336 336 335 334 331 330 329 328 327 323 323 322 316 313 315 316 317 317 319 323 325 324 325 329 331 329 324 318 315 311 304 295 281 272 273 281 287 283 274 267 270 289 292 292 289 274 278 265 237 198 191 197 164 192 197 169 199 210 208 214 219 223 223 222 230 202 146 159 190 188 152 137 131 191 224 133 106 101 97 82 80 92 103 114 120 127
336 335 334 334 333 331 329 328 327 325 324 320 319 321 317 313 313 314 315 314 313 315 320 321 320 325 329 329 326 321 318 305 293 284 276 271 273 294 308 290 273 266 265 273 272 270 274 267 285 303 273 206 185 166 159 179 195 192 208 211 215 211 209 266 273 262 251 226 169 165 196 202 151 125 147 191 180 154 128 128 124 106 99 103 106 114 122 128
335 334 333 332 331 330 329 326 324 322 319 316 314 316 315 313 312 312 312 311 311 311 314 317 319 323 327 329 326 323 318 299 287 280 273 189 108 46 22 357 307 277 255 249 256 256 265 271 287 324 298 234 203 179 174 172 189 210 213 217 224 210 208 269 274 286 294 273 185 165 190 194 134 112 232 160 158 155 118 110 117 101 103 114 112 119 125 129
334 332 331 331 330 329 328 324 321 319 315 312 311 313 312 310 308 308 308 307 307 309 312 316 318 320 323 329 325 324 318 295 283 292 97 106 94 37 23 14 359 325 252 236 249 252 261 269 276 307 279 249 213 198 193 180 172 197 211 225 224 204 217 232 254 278 294 278 230 167 195 163 129 128 175 111 174 135 76 66 75 70 76 103 113 122 129 130
331 330 329 328 328 328 325 323 322 318 313 309 308 310 308 306 305 304 305 305 304 306 311 312 313 319 323 326 326 326 315 291 123 100 100 100 63 32 13 1 359 349 257 226 238 242 251 258 264 277 268 248 212 205 201 193 172 193 222 244 260 225 220 219 252 283 290 248 286 212 217 141 113 177 155 178 202 102 79 67 72 70 64 88 113 126 133 131
331 330 328 326 325 324 322 323 322 318 314 308 305 306 304 303 303 303 304 303 303 304 309 309 308 316 321 323 323 316 293 267 87 93 98 295 301 337 333 334 341 343 258 219 232 232 235 240 245 244 249 241 217 212 202 192 183 214 225 234 256 262 248 218 234 247 77 169 166 240 230 148 160 175 139 174 70 94 98 73 71 78 75 95 113 123 131 129
331 328 327 324 322 320 320 321 320 319 316 311 306 304 301 300 299 299 301 301 301 303 307 309 307 310 318 324 320 292 252 256 284 285 285 295 290 296 297 295 312 329 275 218 227 228 224 226 227 228 243 246 225 219 210 191 188 216 220 209 227 253 258 261 239 191 139 135 155 275 276 163 184 139 102 106 67 97 106 90 79 77 73 92 98 106 118 119
329 326 325 323 321 319 317 318 319 317 315 311 306 304 300 298 296 296 298 297 299 301 305 308 308 308 313 324 318 280 256 264 276 271 264 298 314 318 297 276 279 303 294 240 229 228 225 225 225 227 236 238 250 242 216 198 199 214 217 215 208 233 247 264 270 196 150 142 121 13 359 6 19 21 336 59 71 92 105 108 105 79 53 78 85 90 97 102
328 326 324 323 321 319 317 316 317 312 310 308 304 303 301 299 296 295 295 293 296 298 301 303 304 305 305 309 298 282 275 265 276 271 272 315 324 336 324 304 284 276 280 271 245 232 226 223 224 224 240 254 277 276 228 203 209 213 215 222 213 238 255 276 269 229 156 149 134 109 304 312 3 21 325 299 258 276 103 123 115 99 79 72 77 82 76 78
329 326 324 323 320 319 317 314 313 310 307 306 303 303 301 300 298 297 296 293 296 295 297 297 294 298 294 287 275 273 275 261 278 278 285 320 317 323 318 320 320 288 267 264 254 240 229 229 226 223 256 273 287 275 237 213 218 215 217 231 227 234 263 24 279 249 189 172 155 164 194 228 333 4 262 273 271 265 208 156 107 99 102 77 66 79 77 72
328 327 324 322 320 317 312 308 311 309 306 306 305 304 303 301 298 297 294 293 295 294 296 291 284 289 281 270 261 253 264 304 309 299 286 283 292 316 300 298 309 291 273 260 251 250 244 240 232 211 245 249 276 272 241 223 239 288 214 232 234 224 202 29 291 263 212 184 170 172 188 189 224 240 225 241 16 42 57 134 114 114 105 93 77 81 77 65
329 328 325 322 319 314 309 307 309 307 304 305 305 306 304 300 296 293 289 289 290 288 290 284 278 280 271 262 251 245 260 285 295 296 283 273 279 297 291 286 285 273 269 265 251 254 265 259 241 221 210 212 242 256 247 228 213 257 233 226 232 226 221 209 256 266 232 197 175 151 192 209 206 212 213 222 157 72 336 80 105 99 97 106 102 91 85 76
330 328 324 322 318 315 314 311 310 309 303 300 301 302 301 298 294 290 287 286 286 284 281 275 273 269 260 258 255 252 261 274 285 289 278 273 279 281 276 272 269 263 260 262 259 256 269 282 260 236 235 231 225 249 310 257 169 191 220 216 222 225 231 205 212 252 238 211 170 147 211 225 213 209 196 198 178 149 210 249 13 101 105 110 101 92 94 90
330 327 324 322 323 322 320 315 314 314 309 302 299 297 298 296 291 288 286 285 283 280 272 266 265 259 249 256 271 269 268 271 277 279 273 267 267 265 265 262 261 261 256 255 259 259 262 275 269 250 252 245 262 321 315 231 163 162 179 207 203 211 224 192 188 224 228 210 162 164 235 232 213 209 185 176 173 171 187 212 215 190 146 119 107 97 90 77
331 328 327 329 330 327 322 316 312 313 312 307 299 296 297 295 291 287 283 281 277 271 266 265 256 247 256 266 274 278 268 262 264 271 273 265 260 260 260 255 255 258 252 250 254 253 257 261 245 240 248 228 241 287 267 195 190 171 175 191 193 211 213 179 180 188 197 222 171 171 227 221 75 68 137 139 130 140 162 212 209 174 166 125 108 102 87 63
332 331 335 338 334 330 327 320 315 314 314 310 302 299 299 298 295 288 283 278 270 258 251 257 240 221 258 281 271 274 257 242 261 284 286 270 266 261 263 264 261 257 250 249 249 249 255 247 224 226 234 216 213 231 218 191 208 197 194 185 173 201 197 171 180 176 184 214 189 183 205 170 124 77 82 91 109 126 138 175 104 99 97 76 67 65 67 56
333 336 341 341 334 335 337 329 323 320 317 313 309 308 304 299 295 290 283 265 252 243 229 240 231 206 243 284 280 290 311 290 277 295 297 281 269 258 260 265 262 257 251 245 232 204 229 206 217 218 215 219 205 207 214 197 195 197 199 190 170 191 181 159 172 177 190 202 183 192 214 117 121 115 95 91 116 128 126 116 64 72 75 71 67 59 58 55
336 338 344 343 338 339 341 336 332 328 326 327 326 322 308 299 294 284 271 236 228 228 220 232 247 210 231 261 267 284 312 306 290 289 291 282 261 251 250 250 268 268 250 239 202 166 185 195 220 211 202 215 204 198 204 196 192 190 187 182 166 182 194 177 169 173 180 188 177 184 205 151 123 126 126 120 129 118 111 98 73 73 74 73 74 72 67 61
337 339 346 346 342 343 341 339 337 336 344 348 338 322 298 292 284 252 229 206 205 220 237 225 204 237 296 276 256 272 292 295 290 280 282 284 246 240 242 240 269 265 237 226 187 187 180 186 217 211 207 205 199 201 203 210 201 186 177 164 152 172 207 199 179 173 164 166 186 181 198 190 137 119 131 137 135 121 113 93 79 79 78 76 77 77 72 66
337 338 346 348 346 345 342 345 350 357 2 354 344 332 302 315 300 231 278 244 242 268 298 286 217 256 298 300 290 300 301 288 275 261 252 350 250 237 229 215 223 248 238 218 194 186 171 194 213 209 210 197 193 201 208 236 241 175 163 156 162 178 195 194 179 168 163 162 200 179 177 222 176 129 137 133 111 100 97 91 84 82 79 79 81 80 74 69
334 336 344 349 346 342 347 2 8 11 2 349 355 7 38 13 344 341 333 281 269 282 284 281 265 265 275 286 300 309 313 282 264 167 101 217 247 241 206 176 182 202 231 227 223 182 166 203 217 211 215 201 193 196 207 238 248 98 150 163 172 183 177 187 170 154 171 182 201 170 159 231 238 66 52 54 60 47 66 88 90 87 83 81 81 77 74 70
333 335 339 344 344 341 349 360 351 356 353 353 16 31 45 13 325 292 297 281 291 292 277 270 267 268 269 274 292 304 297 276 261 101 97 190 203 228 196 173 191 196 227 229 232 222 183 213 220 210 214 209 195 189 200 229 208 110 147 168 166 172 122 110 138 144 173 198 194 172 175 190 62 52 43 49 64 53 53 73 81 84 81 74 75 72 68 66
332 334 336 340 341 337 328 317 317 321 339 2 20 22 24 346 316 280 220 272 295 279 268 284 275 275 283 271 277 293 270 274 266 114 82 211 191 221 199 178 188 190 240 227 214 218 199 215 217 205 207 210 199 185 191 220 212 163 149 147 157 167 158 131 145 151 152 213 168 157 169 141 79 64 50 48 74 75 64 67 68 70 73 69 67 67 65 64
332 333 334 336 334 331 321 311 310 307 331 358 2 13 357 319 316 265 217 271 294 253 244 337 318 279 305 316 299 284 269 284 309 26 291 233 187 206 196 180 180 184 231 233 225 234 239 235 213 201 205 206 198 184 187 202 203 184 150 125 145 156 147 104 134 141 120 20 46 123 131 83 70 68 58 40 67 77 71 71 68 64 70 70 68 65 62 61
332 332 331 335 332 332 323 309 324 345 330 321 346 360 341 326 321 228 229 266 267 255 192 23 321 273 333 313 267 248 283 292 333 205 236 234 227 142 170 160 185 198 208 225 234 238 260 263 210 198 206 203 198 184 184 193 185 186 163 142 148 139 113 106 130 138 125 67 330 137 141 82 54 62 61 43 61 68 62 67 69 65 66 66 66 66 63 62
331 331 331 334 332 338 334 312 350 342 313 262 5 339 327 326 319 212 239 265 214 12 346 9 286 315 346 309 241 245 280 266 251 275 259 242 184 144 152 149 198 220 204 217 243 228 271 269 218 200 199 195 199 185 180 189 176 175 160 139 147 140 123 126 134 138 142 144 319 293 144 111 61 60 64 62 69 68 61 64 66 66 65 63 63 63 61 61
329 328 328 329 331 341 340 324 337 328 313 50 347 328 325 319 312 210 252 268 94 5 311 327 339 347 338 312 301 296 282 272 301 308 285 263 206 164 187 173 184 239 204 172 223 177 320 274 222 197 190 190 198 182 176 187 180 157 146 133 140 135 120 116 102 91 120 109 41 342 69 111 90 78 83 84 78 69 59 61 62 63 64 64 63 61 59 58
327 326 324 326 332 328 300 303 315 317 341 356 331 326 318 306 303 225 269 340 28 317 269 312 295 290 305 301 301 307 2 292 294 3 36 33 45 198 219 193 210 235 200 173 208 118 49 270 218 191 185 186 190 177 169 176 164 144 154 138 129 122 116 110 97 97 56 59 77 346 16 100 105 97 100 85 82 78 67 64 65 64 64 65 64 62 60 58
325 322 319 324 336 332 286 286 283 294 318 319 321 323 299 298 338 211 261 9 3 311 147 82 305 314 320 310 301 21 2 260 259 340 359 75 66 288 228 79 280 267 200 205 278 28 23 260 229 180 174 179 177 167 166 170 131 128 147 127 107 110 116 115 109 121 102 54 136 58 10 93 107 91 87 76 84 89 85 75 69 68 67 66 66 64 62 61
323 318 318 325 335 342 315 294 277 307 316 309 313 309 280 273 232 260 340 38 20 320 247 332 330 325 329 333 15 38 340 134 149 322 337 48 34 324 87 96 316 271 168 107 43 272 250 259 276 105 159 242 203 162 158 153 117 111 123 110 102 91 87 106 115 129 111 59 133 118 58 66 93 59 32 74 92 98 100 92 82 75 72 69 68 67 65 63
321 314 317 322 323 324 317 302 315 326 317 313 313 252 224 228 250 3 35 83 76 324 311 330 331 331 336 342 7 7 19 73 339 303 32 353 341 10 19 75 343 244 133 95 125 176 350 3 32 15 324 299 224 146 123 133 120 110 123 126 108 66 27 58 39 59 111 119 126 113 78 59 85 53 24 65 96 101 100 96 91 83 77 73 70 69 67 64
319 312 313 317 320 320 306 294 311 315 308 309 299 204 228 266 26 20 358 327 2 346 339 330 327 332 326 329 4 354 337 56 337 339 61 339 2 33 37 42 345 234 114 86 144 74 23 38 20 337 341 5 49 130 112 129 119 106 141 143 112 106 101 85 140 122 79 74 125 126 92 61 74 63 43 61 78 88 91 92 93 89 84 79 75 71 67 64
318 313 308 312 323 324 311 300 307 311 311 303 244 230 260 20 39 8 344 348 349 327 320 309 315 315 301 321 8 336 322 48 335 9 98 291 32 39 50 37 13 20 71 39 113 67 15 42 13 359 338 338 4 123 134 152 134 116 151 163 134 130 137 148 156 148 75 70 147 141 95 85 108 80 68 79 79 84 89 89 89 89 89 84 80 77 70 65
317 312 308 315 329 330 321 315 315 320 322 232 242 269 53 57 30 350 350 349 318 306 309 317 317 311 308 45 17 319 16 44 10 49 62 13 26 17 5 16 13 13 5 22 75 45 61 86 9 1 304 300 10 65 91 139 131 133 206 227 130 123 129 151 160 148 118 108 151 143 60 101 140 109 99 101 93 92 92 94 94 89 88 85 79 75 69 63
322 318 317 322 333 334 330 329 335 350 15 235 331 47 60 55 9 337 350 335 316 317 320 319 317 327 13 47 26 354 11 28 4 40 50 41 40 10 347 352 360 359 342 33 42 17 83 79 328 301 271 313 43 33 356 81 102 187 266 6 48 234 167 131 146 133 128 110 86 74 39 70 104 102 116 112 102 103 99 100 100 92 88 84 77 70 66 62
328 319 319 329 339 341 341 339 343 355 334 262 43 59 53 49 354 332 342 325 320 322 320 320 332 3 10 13 9 357 344 12 6 12 37 41 43 16 356 323 339 359 4 20 42 225 103 81 304 273 303 37 63 54 28 58 99 273 58 47 32 226 156 106 64 109 122 109 84 97 97 110 106 109 138 128 113 113 109 105 102 96 92 82 75 70 65 64
327 304 297 340 346 346 346 343 341 343 333 22 64 67 36 55 352 333 338 325 313 303 312 339 16 6 7 13 8 351 332 338 1 1 17 11 13 7 354 323 318 350 355 353 37 23 68 84 6 4 45 47 64 66 45 33 20 79 102 277 307 332 32 92 95 87 99 93 94 119 135 151 167 148 149 143 131 126 121 116 110 104 101 90 82 77 68 65
321 293 252 352 350 349 350 346 339 322 290 57 76 95 40 354 325 330 343 334 319 307 326 15 24 20 21 17 12 355 346 350 349 360 34 12 15 15 358 336 314 335 341 334 352 3 27 76 16 358 32 40 26 44 43 18 5 64 137 221 52 60 9 28 99 125 141 113 107 127 136 155 201 152 151 158 147 138 133 125 122 118 113 105 95 87 76 68
307 275 201 355 350 356 2 354 344 325 59 59 71 89 13 309 296 321 341 341 333 338 2 10 6 31 43 25 19 2 8 25 0 3 48 359 4 45 15 347 310 329 336 329 346 291 304 103 78 344 5 25 24 29 31 5 348 354 47 25 51 110 128 68 80 121 139 123 121 135 143 163 272 154 155 158 149 145 143 134 129 123 113 108 100 90 81 72
297 258 121 355 350 355 5 9 20 32 53 58 48 39 331 293 298 325 342 346 345 14 27 13 4 10 26 36 43 17 16 40 19 20 47 353 335 85 22 3 325 328 326 319 360 339 308 73 104 8 12 32 57 32 2 10 352 350 28 28 5 5 97 91 36 59 102 103 119 131 149 170 326 144 144 140 138 141 138 133 129 119 109 103 94 86 81 74
294 184 352 347 348 344 349 21 44 33 59 73 55 35 323 325 324 332 343 344 351 60 53 32 33 23 5 20 36 24 15 39 35 38 57 9 2 26 2 352 332 325 321 327 13 16 358 45 77 48 35 47 69 20 325 343 335 10 50 28 352 10 50 76 39 16 64 91 128 131 148 189 353 38 97 109 113 117 120 123 120 113 110 104 94 90 85 75
313 88 335 343 347 346 8 62 48 21 68 60 22 332 334 349 339 334 348 352 352 28 37 37 41 40 39 13 11 17 14 21 25 38 75 47 25 6 340 338 334 329 328 336 357 358 5 57 70 66 59 70 130 266 42 320 298 23 52 12 358 35 45 75 110 318 8 42 97 121 144 187 49 76 90 97 102 108 119 128 127 124 121 117 107 101 96 84
6 37 345 350 347 331 34 78 70 39 72 19 298 299 342 1 353 346 1 8 358 353 9 24 14 20 57 49 337 1 8 5 16 34 74 67 27 8 344 343 349 351 354 353 342 346 3 45 72 85 78 27 351 339 358 338 342 49 34 10 20 33 39 83 128 112 43 40 65 114 179 208 110 93 100 110 116 118 125 131 132 135 133 126 118 108 101 89
4 331 352 5 12 41 72 60 80 72 74 241 345 33 42 31 11 5 10 13 6 349 352 17 8 354 1 10 18 18 13 38 39 28 40 45 23 8 351 352 2 7 12 8 323 331 12 16 54 102 89 31 14 3 360 4 40 59 14 5 28 31 50 72 39 49 57 341 91 129 211 212 152 136 124 136 144 141 138 131 128 132 132 129 123 112 100 89
328 254 3 16 29 55 66 34 88 102 103 126 64 26 28 57 26 20 20 11 10 6 358 359 346 333 337 352 29 25 20 50 66 19 18 20 9 5 355 354 7 10 360 326 296 312 42 21 14 89 110 106 108 115 62 1 34 66 26 20 29 24 36 54 37 68 73 351 47 115 183 135 140 157 158 163 161 150 149 144 133 129 126 126 124 113 101 92
340 14 352 12 28 49 63 28 42 95 131 132 85 14 13 32 25 24 28 13 5 10 21 7 341 328 349 359 19 33 20 29 65 59 25 8 343 337 351 357 11 5 351 337 329 343 90 53 21 49 80 99 104 111 268 311 34 103 80 51 43 20 11 34 66 93 145 23 8 36 130 140 172 188 177 175 170 157 155 152 144 140 131 128 128 128 124 107
37 28 354 343 19 38 59 34 19 31 33 52 70 5 15 24 6 5 19 13 357 358 15 34 13 6 3 351 3 27 10 14 45 36 12 357 321 287 325 31 25 4 351 346 344 359 103 57 10 39 59 62 71 45 358 8 52 72 72 62 55 29 8 40 81 114 191 99 323 281 129 147 183 190 178 176 172 156 148 152 154 148 141 139 140 137 128 96
50 91 347 283 324 4 8 4 7 28 42 61 71 17 27 37 29 20 359 335 347 360 2 31 20 13 4 342 329 4 357 13 43 19 359 351 343 335 335 14 36 9 358 357 359 18 93 63 355 58 70 50 44 29 17 35 43 27 37 48 46 37 22 40 73 46 44 103 181 189 145 155 176 177 173 169 160 146 146 157 150 138 142 145 140 130 111 75
79 103 14 318 78 38 344 323 326 20 44 60 68 34 38 48 47 48 359 333 357 12 12 30 18 13 13 4 13 44 10 3 34 20 2 350 356 10 2 341 359 2 1 12 10 14 82 71 11 62 84 55 31 18 21 36 28 8 18 28 36 46 34 30 36 34 51 95 143 126 92 68 131 154 152 140 134 133 145 155 142 140 148 139 130 123 97 63
97 131 92 85 85 54 338 316 311 5 33 26 44 28 43 55 53 58 24 11 21 6 9 29 11 12 34 28 35 60 31 13 24 12 357 350 359 23 30 9 332 340 357 18 0 357 43 59 348 16 72 44 14 10 16 21 19 345 316 315 12 80 12 358 354 51 70 154 155 124 109 75 83 117 117 121 134 141 160 166 149 149 146 131 133 132 94 58
66 139 141 118 91 351 328 322 319 354 18 10 19 9 28 57 48 54 51 45 56 34 14 13 352 353 51 46 42 47 18 4 12 4 358 358 360 2 359 1 339 336 356 17 351 354 39 58 315 19 67 25 356 2 351 343 351 316 294 288 260 226 191 137 247 205 162 170 151 139 150 171 147 123 119 135 153 160 169 166 150 147 139 138 153 139 98 72
21 183 217 141 111 8 339 330 345 25 35 11 15 4 8 39 14 359 113 87 73 62 28 351 332 339 46 42 33 19 343 333 337 339 340 331 339 1 359 353 11 4 354 359 1 14 56 75 14 42 64 328 323 335 332 343 1 331 296 292 287 252 159 111 323 286 106 106 136 163 201 174 146 140 142 157 170 174 171 156 149 151 148 155 161 134 115 122